Location: Adair
(33.3137°N, 90.0906°W)
Time: 04:33:47
(UTC+00:00)

Tiangong - Visible Passes

Search period start: 20 May 2026 00:00
Search period end: 30 May 2026 00:00
Orbit: 381 x 391 km, 41.5° (Epoch: 19 May)

Date Brightness Start Highest point End Pass type
(mag) Time Alt. Az. Time Alt. Az. Time Alt. Az.
20 May -2.1 01:50:35 10° SW 01:53:44 62° SSE 01:56:54 10° ENE visible
20 May 0.4 03:27:58 10° WNW 03:29:46 23° NW 03:29:46 23° NW visible
21 May -0.7 02:28:16 10° W 02:31:18 39° NNW 02:34:06 11° NE visible
21 May 1.5 04:06:18 10° NW 04:06:23 10° NW 04:06:23 10° NW visible
22 May -1.7 01:28:41 10° WSW 01:31:51 66° NNW 01:35:03 10° ENE visible
22 May 0.3 03:06:34 10° WNW 03:09:05 21° N 03:10:17 17° NNE visible
23 May 0.0 02:06:45 10° WNW 02:09:31 26° NNW 02:12:18 10° NE visible
23 May 0.9 03:44:40 10° NW 03:46:10 17° NNW 03:46:10 17° NNW visible
24 May 0.5 02:45:01 10° NW 02:47:22 19° N 02:49:37 11° NE visible
25 May 0.4 01:45:12 10° WNW 01:47:43 21° N 01:50:14 10° NE visible
25 May 0.3 03:22:45 10° NW 03:25:09 20° N 03:25:09 20° N visible
26 May 0.4 02:23:14 10° NW 02:25:34 18° N 02:27:54 10° NE visible
26 May 1.1 03:59:58 10° NW 04:00:35 14° NW 04:00:35 14° NW visible
27 May 0.5 01:23:31 10° NW 01:25:51 18° N 01:28:12 10° NE visible
27 May -0.3 03:00:37 10° NW 03:03:21 25° NNE 03:03:45 25° NNE visible
28 May 0.2 02:01:11 10° NW 02:03:40 20° N 02:06:09 10° ENE visible
28 May 0.4 03:37:44 10° WNW 03:39:05 23° NW 03:39:05 23° NW visible
29 May -0.9 02:38:19 10° NW 02:41:19 36° NNE 02:42:12 29° ENE visible
